Other Public Products
Issued by NWS Charleston, SC

Current Version | Previous Version | Graphics & Text | Print | Product List | Glossary On
Versions: 1 2 3 4 5 6 7 8 9 10 11 12 13 14 15 16 17 18 19 20 21 22 23 24 25 26 27 28 29 30 31 32 33 34 35 36 37 38 39 40 41 42 43 44 45 46 47 48 49 50
185
FPUS82 KCHS 180227
OPUCHS

TEST...KCHS/KSAV Gateway Observations...TEST
National Weather Service Charleston SC
900 PM EST FRI NOV 17 2017

NOTE: "fair" indicates few or no clouds below 12,000 feet with no
significant weather and/or obstructions to visibility.

SCZ050-WAZ558-NCZ071-TXZ119-213-PAZ071-DCZ001-FLZ074-172-MI076-
NYZ176-178-MAZ016-IL014-TNZ027-NJZ106-GAZ044-MD014-180300-

...Gateway Observations for Charleston International...

CITY           SKY/WX    TMP DP  RH WIND       PRES   REMARKS
Chas Airport   CLEAR     47  45  93 CALM      30.16R
Seattle        PTCLDY    44  39  82 S12       30.23R
Charlotte      CLEAR     51  33  50 SE7       30.14S
Dallas DFW     PTCLDY    77  64  64 S16       29.72S
Dallas Love    PTCLDY    76  64  66 S12       29.74S
Philladelphia  MOCLDY    44  24  45 W8        30.12S
Wash National  CLOUDY    44  35  70 S3        30.13F
Baltimore      CLOUDY    35  29  78 CALM      30.12F
Miami          PTCLDY    74  58  57 NE6       30.02R
Detroit        CLOUDY    43  34  70 S13       29.84F
Newark         PTCLDY    40  16  37 NW8       30.10S WCI  34
Laguardia      PTCLDY    43  19  38 NW14      30.07S
J F K          PTCLDY    40  16  37 NW10      30.08F WCI  33
Boston Logan   CLEAR     37  14  38 W10       29.99F WCI  30
Ft. Lauderdale PTCLDY    72  59  63 NE5       30.01R
Chicago O`Hare LGT RAIN  44  41  89 S13       29.60F FOG
Chicago Midway DRIZZLE   44  42  93 S13G21    29.63F FOG
Houston Bush   MOCLDY    75  68  78 S10       29.91R
Houston Hobby  PTCLDY    72  69  90 S9        29.91S
Nashville      CLOUDY    61  33  35 S17       29.91F
Atlanta        PTCLDY    54  44  69 SE5       30.09S

$$

GAZ044-118-TXZ119-213-NCZ071-DCZ001-MDZ014-506-PAZ021-071-NJZ106-
NYZ176-178-MAZ106-OHZ011-021-055-MIZ076-KYZ091-ILZ014-INZ047-
MNZ060-ONZ431-180300-

...Gateway Observations for Savannah International...

CITY           SKY/WX    TMP DP  RH WIND       PRES   REMARKS
Savannah Arpt  PTCLDY    55  51  86 E7        30.14S
Atlanta        PTCLDY    54  44  69 SE5       30.09S
Charlotte      CLEAR     51  33  50 SE7       30.14S
Dallas DFW     PTCLDY    77  64  64 S16       29.72S
Houston Bush   MOCLDY    75  68  78 S10       29.91R
Wash National  CLOUDY    44  35  70 S3        30.13F
Wash Dulles    CLOUDY    35  30  82 CALM      30.11F
Baltimore      CLOUDY    35  29  78 CALM      30.12F
Philadelphia   MOCLDY    44  24  45 W8        30.12S
Newark         PTCLDY    40  16  37 NW8       30.10S WCI  34
Laguardia      PTCLDY    43  19  38 NW14      30.07S
J F K          PTCLDY    40  16  37 NW10      30.08F WCI  33
Boston         CLEAR     37  14  38 W10       29.99F WCI  30
Pittsburg      CLOUDY    35  28  75 SE3       29.98F
Akron          CLOUDY    39  28  64 S12       29.94F WCI  32
Cleveland      PTCLDY    42  30  62 S13       29.93F
Cincinnati     CLOUDY    48  36  63 SE12      29.88F
Columbus       MOCLDY    39  32  75 SE5       29.93F WCI  36
Detroit        CLOUDY    43  34  70 S13       29.84F
Chicago O`Hare LGT RAIN  44  41  89 S13       29.60F FOG
Minneapolis    CLOUDY    38  37  97 N10       29.65S WCI  31
Indianapolis   CLOUDY    47  34  60 S14       29.77F
Toronto Canada MOCLDY    36  28  75 SE9       29.96F WCI  29

$$




USA.gov is the U.S. government's official web portal to all federal, state and local government web resources and services.